Location: Bonaustraße
(48.4603°N, 11.9280°E)
Time: 05:07:43
(UTC+02:00)

STRAND 1 - Pass Details

Date: 04 August 2021
Orbit: 768 x 781 km, 98.4° (Epoch: 26 September)

Event Time Altitude Azimuth Distance (km) Brightness Sun altitude
Rises 21:27:30 0° 8° (N) 3,254 ? -6.9°
Reaches altitude 10° 21:29:57 10° 0° (N) 2,322 ? -7.2°
Maximum altitude 21:34:37 38° 294° (WNW) 1,170 ? -7.8°
Drops below altitude 10° 21:39:17 10° 228° (SW) 2,305 ? -8.4°
Sets 21:41:42 0° 220° (SW) 3,228 ? -8.8°
